Follow iAlert.com on twitter @ialertcom
Search For Active Alerts in Your Area  
  Hi Guest:  [ Sign-up / Services ] [ Login ]

Current weather by "City, St" or "zip code"  
 

Advertise Here

Current Conditions: Fort Hood, Hood AAF Ft Hood, TX

A Few Clouds


95.0 F

Last Updated on Aug 16 2018, 5:58 pm CDT
Humidity: 38%
Wind Speed: S 9.2 mph
Barometer 29.93 in
Dewpoint: 65.5 F
Visibility: 10.00 mi
Precip: --
Heat Index: 98 F
Wind Chill: NA
Current conditions at:

Fort Hood, Hood AAF Ft Hood, TX (KHLR)

Lat: 31.13 Lon: 97.7

Local Radar Image active severe weather and emergency alerts image image weather storm and storm spotter reports image weather observation monitoring service image
Local
Radar
Active
Alerts
Storm Reports Obs
Monitoring

iAlert Weather and Emergency Alert Notification Services:


ialert severe weather and emergency alerts by text message and email ialert daily weather forecast by email and text message service ialert real-time weather-observation monitoring and alert notification service ialert storm report monitoring alert notification

Observation History for Fort Hood, Hood AAF Ft Hood, TX


Time Wind
(mph)
Vis
(mi)
Weather Precip (in) Temperature (F) Relative
Humidity
Wind
Chill
(°F)
Heat
Index
(°F)
Pressure
Air Dwpt altimeter
(in)
sea level
(mb)
5:58 pm CDT S 9.2 10.00 A Few Clouds -- 95.0 65.5 38% NA 98 29.93 1012.2
4:58 pm CDT S 11.5 G 18.4 10.00 Partly Cloudy -- 98.0 65.5 34% NA 101 29.95 1012.8
3:58 pm CDT S 16.1 10.00 A Few Clouds -- 98.0 65.8 35% NA 102 29.96 1013.1
2:58 pm CDT S 12.7 10.00 Fair -- 96.0 67.3 39% NA 100 29.98 1013.8
1:58 pm CDT S 10.4 10.00 Partly Cloudy -- 95.0 68.9 43% NA 101 30.00 1014.5
12:58 pm CDT SW 8.1 10.00 A Few Clouds -- 91.0 71.1 52% NA 98 30.02 1015.2
11:58 am CDT S 8.1 10.00 Fair -- 89.0 70.5 55% NA 95 30.04 1015.9
10:58 am CDT S 10.4 10.00 Fair -- 87.0 71.4 59% NA 93 30.04 1015.9
9:58 am CDT S 11.5 G 19.6 10.00 Fair -- 83.0 71.4 67% NA 88 30.04 1015.9
8:58 am CDT SW 8.1 G 17.3 10.00 Fair -- 81.0 72.3 75% NA 85 30.03 1015.6
7:58 am CDT S 5.8 9.00 Fair -- 78.0 72.1 84% NA NA 30.03 1015.6
6:58 am CDT S 5.8 8.00 Fair -- 75.0 71.2 87% NA NA 30.01 1014.9
5:58 am CDT S 6.9 9.00 Fair -- 77.0 71.4 84% NA NA 29.99 1014.2
4:58 am CDT S 8.1 9.00 Fair -- 77.0 70.7 80% NA NA 29.98 1013.8
3:58 am CDT S 9.2 8.00 Fair -- 79.0 69.3 73% NA NA 29.97 1013.5
2:58 am CDT S 9.2 9.00 Fair -- 80.0 70.0 72% NA 83 29.96 1013.2
1:58 am CDT S 11.5 8.00 Fair -- 82.0 70.3 69% NA 86 29.94 1012.5
11:58 pm CDT S 9.2 9.00 Fair -- 84.0 66.6 55% NA 86 29.93 1012.1
10:58 pm CDT S 5.8 10.00 Fair -- 84.0 65.1 53% NA 86 29.93 M
9:58 pm CDT SE 4.6 9.00 Fair -- 86.0 64.8 49% NA 88 29.91 M
8:58 pm CDT S 5.8 10.00 Fair -- 88.0 64.4 46% NA 90 29.89 M
7:58 pm CDT S 10.4 9.00 Fair -- 92.0 63.1 38% NA 93 29.88 1010.5
6:58 pm CDT S 11.5 10.00 A Few Clouds -- 95.0 63.7 35% NA 97 29.88 1010.5

Regional Weather Observation


Gatesville, City-County Airport, TX (KGOP)

Fair
99.0 F

Fort Hood, Hood AAF Ft Hood, TX (KHLR)

A Few Clouds
95.0 F

Killeen, Skylark Field Airport, TX (KILE)

Partly Cloudy
98.0 F

Lampasas, Lampasas Airport, TX (KLZZ)

Partly Cloudy
96.0 F

Temple, Draughon-Miller Central Texas Regional Airport, TX (KTPL)

A Few Clouds
98.0 F

Hamilton Municipal Airport, TX (KMNZ)

Fair
98.0 F

Advertise Here